Regional Weather Roundup
Issued by NWS

Home | Current Version | Previous Version | Text Only | Print | Product List | Glossary Off
Versions: 1 2 3 4 5 6 7 8 9 10 11 12 13 14 15 16 17 18 19 20 21 22 23 24 25 26 27 28 29 30 31 32 33 34 35 36 37 38 39 40 41 42 43 44 45 46 47 48 49 50

655
ASUS43 KBIS 171002
RWRND

NORTH DAKOTA REGIONAL WEATHER ROUNDUP
NATIONAL WEATHER SERVICE BISMARCK ND
500 AM CDT TUE OCT 17 2017

NOTE: "FAIR" INDICATES FEW OR NO CLOUDS BELOW 12,000 FEET WITH NO
SIGNIFICANT WEATHER AND/OR OBSTRUCTIONS TO VISIBILITY.


NDZ001>003-009>011-017-171100-
NORTHWEST NORTH DAKOTA

CITY           SKY/WX    TMP DP  RH WIND       PRES   REMARKS
WILLISTON      CLOUDY    43  32  65 SW9       29.87S
MINOT          CLOUDY    53  33  46 SW16      29.83F
MINOT AFB      CLOUDY    49  32  52 SW13      29.81F
$$

NDZ018>021-031>035-040>046-171100-
SOUTHWEST NORTH DAKOTA

CITY           SKY/WX    TMP DP  RH WIND       PRES   REMARKS
BISMARCK       CLEAR     34  31  88 CALM      29.96S
DICKINSON      CLEAR     48  28  46 SW6       29.93F
GARRISON         N/A     40  37  89 S5        29.88F
HETTINGER ARPT CLOUDY    38  26  62 CALM      30.00F
$$

NDZ004>008-012>016-024-026-027-054-171100-
NORTHEAST NORTH DAKOTA

CITY           SKY/WX    TMP DP  RH WIND       PRES   REMARKS
GRAND FORKS    CLOUDY    36  32  85 S5        29.89R
GRND FRKS AFB  CLOUDY    37  33  83 SW5       29.88S
DEVILS LAKE    CLOUDY    45  38  76 S5        29.89F
$$

NDZ022-023-025-028>030-036>039-047>053-171100-
SOUTHEAST NORTH DAKOTA

CITY           SKY/WX    TMP DP  RH WIND       PRES   REMARKS
FARGO          CLOUDY    39  34  82 S8        29.93S
JAMESTOWN      CLEAR     36  31  82 SW7       29.93F
$$





USA.gov is the U.S. government's official web portal to all federal, state and local government web resources and services.